Theta_e
286 283 278 277 281 282 282 281 282 282 282 282 281 279 279 277 279 280 281 282 282 283 278 280 279 280 283 284 285 285 285 284 284 285 284 284 285 286 286 287 287 288 289 291 291 291 291 292 293 293 292 293 292 291 291 291 291 291 291 291 291 290 288 289 287 286 286 285 283 282 283 284 285 284 284 284 283 283 284 284 284 284 284 283 284 284
286 283 280 280 282 282 283 281 281 282 282 282 280 276 278 276 276 282 281 281 282 283 278 278 281 283 283 283 284 284 284 285 284 284 284 284 284 285 285 286 287 287 288 289 291 291 291 291 292 293 293 293 293 293 293 292 291 290 289 290 290 288 288 288 288 288 286 286 286 285 285 285 285 284 284 283 283 283 284 284 283 283 283 283 283 285
283 279 284 283 282 282 281 279 280 283 282 278 279 276 272 277 279 281 279 281 283 282 278 277 281 282 283 283 283 282 283 283 285 285 284 283 284 285 286 286 286 287 287 288 289 290 290 290 290 291 292 292 291 291 292 292 292 292 291 290 289 288 288 288 287 286 287 286 286 285 284 283 283 282 284 284 284 284 283 283 283 283 283 283 282 283
279 281 284 283 281 283 282 280 280 278 279 278 277 276 276 277 277 276 280 281 285 279 278 279 279 281 280 280 280 281 284 283 282 284 284 284 284 284 285 285 286 286 287 288 287 287 288 288 289 290 290 290 291 291 291 292 292 293 293 292 291 289 287 287 287 289 287 286 285 284 283 282 282 281 283 282 282 282 282 282 283 283 283 283 282 283
281 286 285 281 279 282 284 279 281 280 279 278 277 276 275 278 279 279 280 281 280 279 280 280 276 273 275 277 280 281 282 282 284 283 282 282 282 283 283 284 285 286 286 287 287 288 288 288 288 288 289 290 290 290 290 290 291 292 292 292 292 290 289 287 288 288 287 286 284 283 282 282 281 280 279 279 279 281 282 283 281 282 283 283 283 283
281 285 284 282 279 279 279 280 280 280 278 276 275 279 280 279 278 278 279 278 276 273 279 279 271 269 273 275 277 280 281 283 281 282 282 283 283 283 284 285 286 286 285 286 287 286 287 287 288 288 288 288 288 289 289 289 290 290 291 291 291 290 288 288 287 286 286 286 284 282 281 281 281 281 279 280 280 280 280 281 283 283 282 282 282 282
284 283 282 282 279 278 278 280 281 280 277 272 280 278 281 279 277 277 277 275 271 271 275 278 272 270 277 277 277 277 279 281 282 280 281 282 282 282 283 284 286 286 288 288 287 287 287 287 287 288 288 288 288 289 288 289 289 289 290 290 291 290 290 288 286 286 287 284 284 283 284 284 284 284 284 283 283 282 282 282 281 282 282 282 282 282
284 282 281 279 280 279 280 279 280 280 275 276 278 279 279 278 277 276 276 274 275 276 278 277 273 272 269 278 277 276 278 279 280 281 281 281 281 282 282 284 285 287 286 286 287 287 287 287 287 287 288 288 288 288 289 289 289 289 289 289 289 290 290 289 287 286 286 285 284 283 283 284 284 284 285 286 285 283 283 280 281 281 281 282 282 282
282 283 281 281 279 280 279 281 281 281 280 280 280 280 280 278 278 277 275 274 274 274 272 273 277 271 265 276 277 276 280 277 278 280 281 281 281 281 282 284 284 286 286 285 286 286 286 286 287 287 288 288 288 288 288 288 288 288 289 289 289 290 289 289 287 287 284 286 286 284 284 283 285 285 285 286 286 284 282 280 280 280 281 281 281 282
282 283 283 282 279 280 281 280 281 281 281 280 280 279 276 278 277 276 273 274 269 270 263 272 277 269 272 276 277 275 278 277 279 280 280 281 282 282 282 284 286 286 286 286 286 286 286 287 287 287 288 288 288 288 289 289 289 289 289 289 289 289 289 289 288 287 286 284 285 284 284 284 285 285 285 284 284 283 281 280 280 280 280 280 281 281
283 285 285 283 283 284 283 282 281 280 283 282 279 279 276 274 274 273 272 267 266 260 264 273 275 276 267 274 275 277 281 277 279 280 282 283 282 283 282 283 284 285 285 286 286 286 287 287 288 288 288 288 288 289 289 289 289 289 288 288 288 288 288 288 288 288 288 287 285 285 285 285 285 285 285 284 284 282 280 279 280 279 280 280 280 280
283 283 284 284 285 284 282 280 280 281 281 279 278 277 276 271 272 269 268 265 263 264 267 270 275 274 266 271 275 276 277 277 278 279 281 282 282 282 282 283 284 284 284 285 285 285 286 286 287 287 287 287 287 288 288 288 288 288 288 287 287 288 288 288 288 287 287 287 287 286 285 285 285 285 285 284 284 284 282 281 280 280 279 279 279 279
282 284 283 281 285 284 281 279 279 278 279 282 278 278 273 266 266 264 268 269 263 265 273 271 273 273 271 275 278 280 279 280 280 280 280 280 280 281 282 283 283 284 284 284 284 285 285 285 285 285 285 286 286 286 287 287 287 287 287 287 286 287 287 287 287 286 286 286 287 287 286 286 286 285 285 284 284 284 283 283 282 280 279 278 278 278
274 276 281 280 282 283 281 278 277 277 278 280 278 270 266 262 257 257 259 259 260 271 271 273 273 271 274 275 276 277 280 280 280 280 281 280 280 281 282 282 283 284 284 284 284 284 284 284 284 285 285 285 286 286 286 287 287 287 287 287 286 286 287 287 286 286 286 287 287 287 287 286 286 285 285 285 284 285 284 283 283 282 281 280 279 279
271 271 276 279 279 281 281 280 281 279 277 277 276 278 270 265 264 262 258 263 268 269 274 273 267 264 269 274 279 279 280 281 281 281 282 282 282 282 282 283 283 283 283 284 283 283 283 284 284 284 284 284 285 285 286 286 287 287 286 286 286 286 286 286 286 286 286 287 287 288 288 287 286 285 285 285 285 284 284 284 283 283 282 282 281 280
275 273 279 280 280 282 283 282 280 280 277 277 277 275 272 272 270 266 264 263 261 265 268 263 267 266 275 278 280 279 281 281 281 281 281 281 282 281 282 282 282 283 283 284 283 283 284 284 284 284 284 285 285 285 286 286 287 287 287 286 286 286 286 287 286 286 286 286 287 287 287 288 287 287 286 285 285 284 284 284 283 283 283 282 282 282
272 272 275 280 281 283 282 281 281 282 271 277 277 271 277 276 276 266 270 271 268 264 266 262 270 274 276 277 278 280 280 279 280 280 280 280 280 281 281 281 282 283 283 284 284 284 284 284 284 284 284 285 285 285 286 286 287 287 287 287 286 286 287 287 287 286 286 286 286 286 286 287 287 287 286 286 285 285 284 284 283 283 283 283 282 281
270 274 279 276 279 282 279 280 282 280 281 274 269 275 277 278 274 271 265 261 258 259 266 266 269 271 270 269 277 277 277 278 278 279 279 279 280 279 280 281 282 282 283 285 285 285 285 285 284 284 285 285 285 285 286 286 287 287 287 287 286 287 286 287 287 286 286 286 286 286 287 287 287 287 287 286 285 284 283 283 283 283 282 282 282 281
276 267 275 277 277 279 277 281 277 281 280 282 279 277 277 265 268 266 262 263 263 262 262 267 268 269 266 270 274 274 275 276 277 278 278 278 279 279 280 280 281 283 284 284 284 285 285 284 284 284 284 284 285 285 285 286 286 286 286 287 287 286 287 287 287 287 286 286 286 287 287 286 286 286 286 285 284 284 283 282 283 282 282 282 282 281
276 269 274 276 279 279 276 276 271 272 276 279 279 281 277 274 267 266 268 262 263 264 260 264 265 269 269 269 273 273 275 276 276 277 277 278 279 279 280 280 281 282 282 283 284 285 285 284 284 284 284 283 284 284 285 285 286 285 286 286 286 286 286 286 286 286 286 286 286 286 286 286 286 285 284 284 284 283 283 283 283 282 282 282 282 280
275 275 266 274 276 275 275 275 275 277 271 274 271 268 273 269 272 271 267 267 269 262 261 260 262 267 273 276 275 274 276 276 277 277 278 279 280 280 281 281 281 282 282 282 283 284 285 284 284 283 283 284 284 284 285 285 285 285 285 285 285 285 285 285 285 285 285 285 285 285 285 285 285 284 285 284 284 283 283 283 283 282 282 282 280 280
269 271 268 273 275 273 276 275 277 277 278 276 273 273 272 268 274 267 268 264 262 265 264 259 265 269 275 280 277 276 277 277 277 278 278 279 280 280 281 281 281 281 282 282 283 284 285 284 283 282 283 283 283 283 283 284 284 284 284 284 284 284 284 284 284 284 284 284 285 284 285 285 285 285 285 284 284 284 284 283 283 283 282 281 281 280
278 273 271 270 273 277 279 277 277 279 278 276 277 277 272 267 266 267 265 267 263 266 264 265 263 266 274 276 278 277 278 278 278 279 278 279 279 280 281 281 282 282 281 281 282 284 284 282 281 282 282 282 282 282 283 283 283 283 284 284 284 283 283 284 284 284 284 284 284 284 284 285 285 285 284 284 284 284 284 284 283 283 281 281 281 280
283 268 265 273 274 275 276 275 277 275 278 277 276 274 273 272 271 269 270 268 266 268 267 263 264 269 274 277 277 278 278 278 279 279 278 279 280 280 281 281 281 280 280 281 282 284 282 280 281 281 281 281 281 281 282 282 283 283 283 283 283 283 283 283 283 283 283 283 283 284 284 284 284 284 284 283 283 283 284 284 283 283 281 281 280 279
270 270 271 265 268 274 274 275 278 277 277 277 273 272 272 273 270 268 266 261 265 270 269 266 264 268 276 278 279 279 278 278 278 279 279 278 279 280 280 281 281 280 280 280 281 280 280 280 280 280 281 281 281 281 281 282 282 282 282 283 283 283 283 283 283 283 282 282 282 283 283 283 284 283 283 283 283 283 284 284 283 283 282 282 280 280
273 271 269 264 265 264 266 267 270 273 275 277 277 273 273 270 270 270 265 263 264 266 271 266 267 276 279 281 278 277 277 278 279 279 280 279 279 279 279 280 279 279 279 279 279 279 278 279 279 280 280 280 280 280 280 281 281 281 282 282 282 282 282 282 283 282 282 282 282 282 282 283 283 283 283 283 283 284 284 284 283 283 283 282 281 281
268 271 272 265 267 268 272 274 278 278 276 273 274 272 271 269 269 266 267 266 266 270 269 271 274 273 275 276 275 275 277 276 276 277 277 277 278 279 279 279 279 279 279 279 278 278 278 278 278 279 279 279 279 280 280 280 281 281 281 281 282 282 282 282 282 282 282 282 281 281 281 282 282 282 282 283 283 284 284 283 283 283 283 283 282 281
264 268 271 273 270 275 277 277 278 278 274 275 271 270 271 271 268 266 268 267 273 270 266 274 275 273 273 275 275 275 275 275 276 277 277 277 278 278 279 278 280 278 277 277 277 277 277 277 278 278 278 279 279 280 280 280 281 280 281 281 281 282 282 282 282 282 281 281 281 281 281 282 282 282 282 283 283 283 284 283 283 283 283 283 281 281
267 268 268 268 268 273 275 276 277 276 275 274 272 272 271 270 270 267 266 271 273 269 267 272 274 273 274 275 275 275 275 275 276 276 277 278 278 278 277 276 276 276 276 276 277 277 277 277 278 278 278 279 279 279 279 280 280 281 281 281 281 281 281 282 281 281 281 281 281 281 282 282 282 283 283 283 283 283 283 283 283 283 283 282 282 281
269 264 263 265 271 274 275 276 276 274 273 272 270 272 273 272 270 270 270 273 272 271 273 274 274 274 275 274 275 275 276 276 277 278 277 276 276 276 276 275 275 275 276 276 276 277 278 278 278 278 278 278 279 279 279 280 280 280 280 280 281 281 282 282 281 281 281 281 281 281 282 282 282 282 282 282 282 282 283 283 283 283 282 282 282 281
272 269 273 265 269 274 276 274 272 274 272 269 272 272 273 273 273 273 272 272 273 272 274 274 274 272 276 276 275 276 277 277 276 275 275 275 275 275 275 275 275 275 276 276 277 277 278 278 278 278 278 278 279 279 279 280 280 280 280 280 281 281 281 281 281 281 281 280 281 281 281 281 281 282 282 282 282 282 282 283 283 283 283 282 281 281
269 270 266 263 270 272 275 275 276 275 272 270 270 271 272 272 269 272 270 273 271 270 272 272 270 269 274 276 276 276 275 274 273 274 274 275 275 275 275 275 275 275 276 276 277 278 278 278 278 278 278 279 279 279 279 279 280 280 280 280 281 281 281 281 281 280 281 281 281 281 281 281 282 282 282 282 282 282 282 283 283 283 283 283 282 282
264 266 269 264 270 269 276 277 275 273 268 263 267 271 272 273 273 274 275 275 274 274 271 268 268 273 274 275 273 273 273 273 273 274 274 275 275 275 275 275 275 276 276 277 277 278 278 278 278 279 279 279 279 279 280 280 280 279 280 280 281 281 281 281 281 281 281 281 281 281 281 281 281 282 282 282 282 282 282 282 283 283 284 284 284 284
263 266 267 265 266 268 275 273 274 270 266 265 273 276 275 272 272 271 271 273 274 274 273 273 272 273 273 273 272 272 272 273 273 275 276 275 275 275 275 276 276 277 277 277 278 278 279 279 279 279 279 279 280 280 280 280 280 280 281 281 281 281 281 281 281 281 281 281 280 281 281 281 282 282 282 282 282 282 282 282 283 284 284 285 285 284
266 265 267 261 266 268 270 269 270 265 263 273 276 277 277 276 275 273 273 273 274 275 275 272 272 272 273 273 273 273 274 275 276 275 276 276 276 276 276 276 276 277 277 277 278 278 278 278 279 279 279 280 280 280 280 280 281 281 281 281 280 281 281 281 281 281 281 280 280 281 281 282 282 281 281 281 281 282 282 282 283 284 284 284 284 284
266 268 265 267 261 265 266 266 263 266 271 275 276 276 278 277 276 274 271 274 275 275 273 271 272 273 273 273 273 274 274 275 275 276 276 277 277 276 276 276 277 277 277 278 278 278 279 279 279 279 279 281 281 280 281 280 281 281 281 281 281 281 281 281 281 281 281 280 281 281 281 282 282 282 281 281 281 281 282 283 283 283 284 284 284 284
270 263 264 269 262 263 264 268 269 274 271 272 271 274 275 272 271 270 265 269 273 271 272 271 272 272 273 273 273 274 275 274 273 274 276 277 277 277 277 277 278 278 278 279 279 279 280 280 280 280 280 280 280 280 280 281 281 281 281 281 281 281 281 281 280 280 280 280 281 281 281 282 282 281 281 282 282 282 282 282 283 284 284 284 284 283
276 271 271 268 266 263 266 267 267 264 264 267 276 278 278 277 276 274 271 267 274 273 274 272 271 272 272 273 273 273 274 271 269 271 275 277 277 277 278 279 279 279 279 279 280 280 280 280 281 281 280 280 280 280 280 281 281 280 280 280 281 280 280 280 280 280 280 280 281 281 282 282 282 281 282 282 281 282 282 283 284 284 285 284 284 283
272 272 265 266 265 265 268 265 265 264 267 272 274 277 277 277 276 275 268 264 271 273 274 273 272 272 272 272 272 273 271 267 267 271 275 276 277 278 278 278 279 279 279 280 280 279 280 280 280 280 280 279 278 279 280 280 280 280 279 280 280 280 280 279 280 280 280 280 281 282 282 282 282 282 282 282 282 283 282 283 283 284 284 284 284 283
266 261 262 261 260 266 265 265 264 263 263 271 276 276 277 276 275 271 259 260 271 273 273 273 272 272 272 273 273 272 270 266 268 271 276 277 277 278 278 278 278 279 279 280 280 280 280 280 279 279 279 278 279 279 280 280 280 279 279 280 280 280 280 280 280 281 281 281 282 282 282 282 282 282 282 282 283 283 283 283 283 284 284 284 284 283
261 262 263 265 263 268 271 268 269 269 275 276 276 277 276 276 273 262 257 265 273 273 274 273 273 273 273 273 273 270 273 273 274 276 277 277 277 277 278 279 279 279 279 279 279 280 279 279 279 279 279 279 279 280 280 280 279 279 280 280 280 279 280 281 281 281 281 282 282 282 282 282 282 282 283 283 283 283 283 283 283 284 284 284 284 283
268 265 264 266 269 267 268 267 266 270 275 276 278 277 276 270 260 260 270 275 273 273 274 274 273 274 274 274 274 273 274 276 276 277 277 277 277 278 278 279 279 279 279 279 279 279 279 278 278 278 279 279 279 280 280 280 279 279 280 280 279 280 281 281 282 282 282 281 282 282 282 282 283 283 283 284 283 283 283 283 284 284 284 284 282 281
266 265 266 267 269 272 270 267 265 261 272 278 276 273 274 266 267 273 274 274 275 274 274 274 274 275 275 274 275 275 275 275 276 276 277 277 277 277 278 278 277 277 277 278 278 279 279 278 278 278 278 279 279 279 279 280 279 279 280 279 280 281 282 282 282 282 281 281 282 282 282 283 283 283 283 283 283 283 282 283 283 283 282 280 279 278
266 264 266 267 270 266 267 264 264 271 276 278 274 268 271 273 275 275 274 272 274 275 274 274 275 275 275 275 274 274 275 275 275 276 276 277 277 278 278 278 278 278 278 279 279 278 279 278 278 278 278 279 279 279 279 279 279 279 279 279 281 281 282 282 282 281 281 281 282 282 282 283 283 283 283 283 283 283 283 283 283 280 279 278 276 276
274 268 268 266 266 266 266 269 274 276 276 277 275 274 274 276 276 275 274 274 273 274 276 275 274 275 276 275 275 274 274 275 275 276 275 276 277 277 277 277 277 277 278 278 278 279 279 278 278 278 278 279 279 279 279 279 279 279 279 280 281 281 281 281 281 281 281 281 281 282 282 283 283 283 283 283 283 283 283 282 280 277 277 275 274 274
275 275 275 271 267 274 276 275 276 275 274 274 276 276 275 275 276 276 274 273 274 275 276 275 275 275 275 276 275 274 274 275 275 275 276 276 276 277 277 277 277 278 278 278 278 278 278 278 278 278 278 278 279 278 279 279 279 278 279 280 281 281 281 281 281 281 281 281 281 282 282 281 282 282 283 283 283 283 283 280 278 275 275 273 273 272
273 274 273 267 272 269 265 273 273 272 273 274 274 276 277 276 275 275 274 274 275 275 275 276 276 276 276 276 275 274 274 275 275 275 275 275 276 276 276 276 277 277 277 276 277 278 277 277 277 277 276 276 277 277 278 278 279 280 280 280 280 281 281 281 281 281 281 281 281 281 281 281 281 282 282 283 283 283 282 279 276 274 273 272 271 271
269 276 272 272 271 269 268 271 273 274 274 275 275 274 274 275 275 276 276 276 276 276 276 276 276 276 276 275 275 274 275 275 275 274 274 275 276 276 275 276 276 276 276 276 276 277 276 276 275 275 274 275 276 277 277 278 279 280 279 279 280 281 281 280 280 280 281 281 281 281 282 281 281 281 281 282 282 282 280 277 274 273 272 271 271 270
274 275 268 271 269 271 273 274 274 274 274 274 275 275 276 275 275 275 275 275 276 275 275 276 277 276 275 275 276 275 275 275 274 274 274 275 275 275 275 274 274 273 273 273 274 275 273 274 274 274 274 275 276 277 278 279 279 278 278 278 280 281 280 279 279 280 281 281 281 281 282 281 281 281 281 281 282 282 277 274 273 273 272 272 272 271
274 270 273 271 266 266 267 270 273 267 267 271 274 275 275 276 275 275 275 275 275 275 275 275 275 276 276 276 276 276 274 274 274 274 274 275 275 273 271 271 271 271 271 272 272 273 273 274 274 274 274 275 276 277 277 277 277 278 278 279 281 281 279 279 279 280 280 281 281 281 281 281 281 281 281 281 281 281 278 275 276 275 274 272 274 276
272 273 272 268 267 266 271 273 274 273 273 274 274 275 276 276 275 275 274 274 275 276 276 275 274 274 275 276 277 275 274 273 273 275 274 273 271 271 271 271 270 270 270 271 271 272 272 273 273 273 273 273 275 275 276 276 277 277 278 280 280 279 279 278 279 280 280 280 280 280 280 280 280 281 281 281 282 281 275 274 273 276 276 276 276 276
Wind_Speed
0 10 7 2 7 7 6 1 4 4 2 2 0 1 7 5 8 5 5 3 4 7 1 4 5 7 9 8 8 7 8 4 6 8 6 5 5 5 5 5 5 6 4 6 5 7 8 9 9 7 7 8 5 5 5 4 4 3 2 1 5 3 4 6 6 5 6 6 3 2 7 10 9 8 7 7 8 8 10 10 10 10 10 9 9 9
5 11 6 4 5 5 6 3 3 2 1 1 3 2 7 2 7 8 4 2 5 5 6 4 9 11 7 6 7 7 5 4 4 5 5 5 4 3 3 5 5 3 3 7 10 12 11 12 12 11 11 12 14 12 12 12 9 6 4 4 4 1 3 5 6 6 5 6 7 7 8 8 7 7 8 10 9 10 8 8 8 8 8 9 11 10
9 6 4 5 4 3 1 4 1 1 1 1 1 3 3 5 5 10 2 1 1 2 7 3 10 12 10 8 9 4 3 4 2 1 4 3 4 3 3 3 4 5 6 6 7 8 10 11 11 11 11 10 8 10 10 9 11 9 8 6 5 3 3 4 3 4 6 5 4 5 3 4 4 3 5 4 4 4 7 7 7 8 9 10 9 10
7 4 5 1 2 3 1 5 4 3 2 1 4 6 7 5 8 9 3 8 13 1 3 5 7 11 8 5 6 7 1 4 5 4 5 3 4 4 4 4 4 5 8 8 7 6 7 6 9 10 10 9 10 12 12 13 13 11 12 9 7 5 4 4 4 5 3 1 3 3 1 1 2 3 2 4 4 4 5 9 9 8 9 11 11 11
4 1 1 3 6 4 1 3 7 8 8 3 2 1 4 6 3 3 9 10 9 1 1 7 3 6 2 5 7 3 3 2 2 7 2 3 3 4 4 4 2 4 5 7 8 8 9 10 8 6 6 8 9 8 9 9 10 8 10 10 8 7 5 4 3 4 1 1 1 1 1 1 3 2 2 2 5 7 8 7 7 13 13 11 10 10
2 1 1 3 4 6 4 5 4 4 7 8 4 2 3 4 5 5 7 9 8 3 2 6 7 3 4 5 8 8 6 8 4 4 5 4 5 5 5 5 7 6 2 2 4 5 6 8 8 9 9 10 8 9 7 6 7 8 10 12 11 8 5 4 4 2 2 3 4 2 3 6 6 8 5 9 11 9 9 13 11 7 8 11 10 10
0 2 4 1 2 4 5 2 1 2 4 3 6 2 1 3 4 5 7 4 6 5 5 5 4 7 7 6 5 5 8 11 9 5 7 5 5 4 4 4 5 6 8 8 6 8 9 9 9 10 10 10 10 9 8 7 8 9 10 10 10 10 9 5 3 1 1 3 3 5 7 7 8 9 8 7 8 8 8 7 7 9 8 9 11 11
3 4 6 3 6 6 6 8 1 2 3 4 1 1 5 5 5 2 1 1 3 2 5 3 3 2 7 10 2 4 7 8 8 9 7 6 4 4 4 4 4 6 6 7 7 8 8 8 9 11 11 11 10 9 10 11 11 11 10 9 9 8 8 6 5 1 2 4 5 5 7 8 8 9 13 9 8 6 6 7 9 8 8 9 11 11
2 5 5 5 4 4 5 2 3 1 1 5 5 4 8 5 4 2 1 1 0 1 4 4 2 1 3 10 4 4 5 7 7 7 8 8 7 4 5 5 6 7 7 7 8 8 8 11 11 11 12 10 12 13 13 12 11 10 11 11 11 12 10 9 7 4 4 4 5 5 5 7 8 9 10 10 8 7 5 7 7 8 9 9 10 11
2 1 1 2 2 6 4 4 1 5 3 5 4 3 2 2 2 2 1 1 2 3 4 1 2 1 9 8 8 3 1 6 8 9 9 8 8 9 7 7 10 14 16 18 18 16 13 12 14 13 14 17 14 12 13 14 14 14 13 14 15 13 10 9 10 8 6 5 5 6 7 9 10 8 9 7 10 8 6 8 8 8 8 9 9 10
1 3 4 3 0 1 4 5 2 4 4 6 3 4 3 3 3 2 6 2 2 2 4 1 1 4 4 9 6 3 8 2 9 9 9 12 12 14 13 12 18 19 18 15 15 17 17 14 15 15 17 15 16 14 15 15 14 13 14 13 15 13 10 10 9 9 9 7 5 6 7 8 11 12 10 10 10 7 6 9 9 8 9 8 9 8
2 1 0 1 1 2 1 6 2 1 1 4 5 6 9 3 8 2 4 4 2 6 6 2 1 0 1 8 7 5 5 9 8 12 15 18 19 17 16 15 17 15 13 14 15 15 16 17 17 16 17 16 15 15 16 14 13 13 12 12 13 14 13 10 10 9 9 8 8 6 7 9 10 10 10 11 12 10 9 9 10 8 7 8 7 8
1 0 1 5 2 3 3 5 7 3 4 10 6 10 9 7 8 8 7 10 3 4 3 2 2 5 6 9 10 10 13 16 15 12 13 12 14 16 16 16 12 11 13 14 13 13 14 14 15 15 15 16 16 14 15 15 12 12 11 11 11 14 12 11 10 9 9 8 8 8 8 8 9 9 10 10 11 10 9 9 9 8 9 7 7 8
7 4 4 5 3 0 1 8 8 8 8 10 7 3 6 6 5 4 6 3 4 7 3 0 0 3 6 7 4 8 11 14 15 13 12 14 14 13 12 10 11 12 11 11 11 12 12 12 14 14 14 15 14 16 16 15 15 13 13 13 13 14 11 10 10 9 10 10 9 8 8 9 8 9 9 9 10 11 9 8 10 10 9 9 11 10
10 9 4 5 2 1 2 3 1 5 3 3 3 1 1 3 0 6 2 6 10 11 8 1 2 4 6 1 7 9 10 14 12 13 13 15 14 12 11 13 14 13 11 10 11 11 12 13 14 14 14 14 14 16 15 14 15 15 14 15 15 16 16 13 12 10 11 11 11 10 9 8 8 8 9 9 8 9 10 9 9 10 9 9 10 10
1 6 10 1 5 2 2 0 1 1 1 1 1 3 5 4 4 4 6 4 5 7 9 3 4 3 3 3 7 5 9 12 9 10 12 15 13 14 14 14 14 13 13 12 13 14 15 15 16 15 16 16 15 17 15 16 15 15 16 15 15 14 14 13 12 11 10 10 10 11 12 12 10 9 8 8 8 8 9 10 9 11 10 10 10 9
4 5 3 8 2 0 0 0 1 0 3 3 2 2 2 3 5 2 4 0 1 1 9 1 8 5 6 2 16 16 17 16 13 14 14 13 12 12 12 13 13 11 13 13 13 13 14 16 17 16 16 16 17 17 17 16 15 15 15 15 16 16 14 14 12 11 9 9 10 11 11 11 12 12 12 12 12 11 10 8 9 9 11 10 9 9
0 9 8 5 4 1 1 1 0 2 1 1 2 4 1 2 3 3 3 5 2 3 8 2 8 10 5 8 8 17 17 17 16 15 14 11 12 14 12 12 13 15 15 16 15 13 12 13 15 15 16 16 17 17 16 16 15 13 12 13 15 16 17 16 14 13 11 11 10 11 11 11 11 11 12 12 12 12 9 9 8 8 9 10 10 8
2 5 6 1 3 9 3 1 2 1 1 0 2 1 3 3 6 3 2 5 8 7 7 8 7 7 3 5 11 14 14 15 15 14 16 17 17 16 15 17 16 16 15 16 16 15 14 14 15 16 17 17 16 16 15 14 15 14 13 13 12 14 15 15 13 12 10 9 8 8 11 11 12 11 10 11 11 10 10 11 10 9 10 10 9 8
1 1 8 2 1 7 3 4 6 4 3 1 2 0 1 2 5 1 3 2 3 9 3 8 3 10 2 1 4 6 7 11 10 14 15 15 14 16 15 17 18 18 18 18 17 15 13 12 13 15 16 17 18 18 17 16 15 16 15 14 14 14 14 14 14 13 12 12 10 11 10 10 9 9 9 10 10 11 11 11 11 10 10 11 8 8
1 1 3 6 5 5 6 2 2 2 3 6 6 4 3 1 4 2 1 2 6 6 6 6 7 2 2 0 2 6 9 11 12 15 14 15 16 18 17 15 16 17 17 18 18 17 14 13 14 16 16 16 16 16 15 16 16 15 15 15 15 15 16 16 15 13 12 12 12 12 12 12 10 9 9 10 10 10 11 11 11 10 11 8 8 8
1 2 4 7 10 4 7 3 1 1 1 2 2 4 2 3 9 6 11 1 1 1 7 4 11 4 3 3 2 5 6 11 13 16 15 16 17 16 14 14 15 15 17 18 18 17 12 12 14 17 14 16 16 16 18 18 15 15 16 15 15 14 13 14 14 13 13 12 12 12 12 12 11 10 9 10 10 10 11 10 11 11 9 9 10 7
0 1 1 7 4 8 11 4 1 2 2 3 3 4 1 2 3 0 9 8 4 5 1 5 7 5 4 3 2 4 9 13 14 14 16 15 16 15 15 15 14 15 17 18 17 14 10 12 16 15 18 16 14 17 18 15 15 16 16 16 15 15 16 14 14 13 13 13 13 14 13 12 11 11 11 11 10 11 11 11 11 10 9 10 10 8
3 1 4 7 5 7 11 3 1 1 3 2 1 2 2 6 4 3 5 4 6 10 7 5 4 6 5 4 2 5 12 14 15 16 19 16 16 17 16 17 17 20 21 19 16 10 14 18 16 16 15 13 16 17 16 16 16 17 16 16 15 16 17 15 13 13 13 13 14 14 14 13 12 11 10 10 10 11 11 11 10 9 9 10 9 9
2 2 3 6 8 10 9 5 2 2 1 1 3 4 5 6 8 6 4 1 2 6 4 7 13 8 2 3 6 18 26 25 26 25 22 23 20 18 19 17 17 20 20 17 14 17 20 19 18 17 14 14 16 15 16 17 17 17 17 16 17 16 15 14 13 13 13 13 14 15 15 15 14 13 12 11 10 11 12 12 10 9 9 9 9 10
0 2 1 2 7 10 12 13 14 15 13 9 2 7 9 11 12 11 6 5 2 5 13 9 12 10 12 11 14 20 22 19 20 21 22 21 20 20 16 16 17 19 16 15 15 18 16 16 16 15 14 14 15 15 15 16 15 16 16 16 15 15 15 14 13 12 13 13 14 14 16 16 15 14 14 13 12 12 11 11 10 10 9 9 11 10
1 0 1 4 2 6 9 8 11 3 8 9 12 10 8 5 5 4 2 2 7 10 11 12 13 16 14 12 13 19 15 21 23 23 22 20 20 17 16 17 20 19 17 15 15 13 15 16 18 15 16 17 16 16 16 16 16 16 16 17 16 15 15 15 14 14 14 14 14 14 14 14 14 14 13 13 13 12 11 10 10 10 11 10 9 10
2 1 4 4 6 9 9 10 14 8 8 7 10 9 6 8 6 5 9 7 11 10 11 10 22 17 12 12 14 18 19 21 21 19 18 19 18 18 18 19 21 19 14 13 15 17 20 19 16 16 18 16 16 18 16 15 16 16 16 16 16 16 15 13 14 14 15 15 15 14 15 14 14 14 14 13 11 11 11 11 10 10 10 9 9 10
1 1 4 6 9 8 12 11 14 8 1 3 6 9 9 6 9 11 8 8 12 5 14 22 22 22 16 11 15 20 20 21 16 18 18 19 17 16 18 19 19 16 14 15 18 19 21 17 16 18 18 17 19 19 18 17 17 17 16 16 16 15 16 15 14 15 15 15 15 15 14 14 13 13 13 13 13 12 12 11 11 10 10 10 9 9
1 3 4 3 6 9 12 10 9 4 1 4 5 8 7 7 6 6 9 10 12 15 19 21 24 20 12 12 20 20 19 17 17 17 16 17 18 17 18 20 18 16 15 15 20 21 19 19 18 17 17 20 19 19 19 19 18 18 18 18 17 16 16 14 15 15 16 16 16 15 15 15 14 14 13 14 14 14 13 12 11 11 11 11 10 10
3 6 4 1 4 12 9 2 1 2 1 5 5 7 11 10 12 12 12 15 16 15 18 22 20 16 8 13 18 20 17 16 18 20 20 19 19 21 23 20 19 15 15 20 22 22 21 20 19 18 21 20 19 17 18 18 18 18 19 18 17 17 16 14 15 15 16 16 15 15 15 14 13 13 13 14 14 14 14 13 11 11 11 10 10 10
3 6 2 3 8 11 7 9 12 6 11 8 9 14 15 16 15 14 11 11 13 18 21 18 12 11 12 16 17 16 19 22 23 20 20 16 19 23 22 20 17 15 19 23 21 20 21 21 20 21 21 20 17 17 16 17 17 18 18 18 17 16 15 15 15 16 16 16 15 15 15 14 13 13 14 14 14 14 13 13 12 12 12 12 11 9
1 1 6 4 8 8 14 13 14 8 3 2 7 10 10 12 13 16 13 14 15 17 17 9 9 12 19 18 21 21 23 22 21 20 19 21 23 23 21 20 17 19 23 21 22 23 22 21 19 23 23 18 17 17 19 18 18 18 18 18 17 16 15 16 16 17 17 16 16 15 14 13 13 14 14 14 14 13 12 13 13 14 13 13 11 10
1 1 2 1 2 8 14 13 13 8 12 6 5 3 10 12 17 19 17 17 18 17 10 9 15 20 21 22 23 24 23 23 23 22 18 17 18 19 17 15 19 22 23 22 22 24 21 17 21 21 20 18 17 18 18 16 18 18 18 17 17 16 16 17 18 17 16 16 15 15 14 14 14 14 15 14 13 13 13 13 14 14 13 13 13 12
1 1 1 0 1 8 8 7 13 11 7 3 6 5 13 12 13 18 24 20 19 19 11 18 22 26 24 19 22 21 22 26 26 23 22 20 15 12 15 19 23 24 24 23 24 24 22 23 24 23 21 17 18 20 17 17 17 18 18 18 17 17 17 18 18 17 16 16 15 15 15 14 14 14 14 13 13 13 14 14 14 15 13 12 13 12
0 2 2 1 1 3 6 6 8 11 2 3 8 1 12 16 16 18 21 13 15 9 12 22 25 20 21 22 21 20 20 24 24 25 15 11 8 11 17 20 24 23 22 22 24 23 24 23 23 22 19 17 18 17 17 17 17 18 18 17 17 17 17 17 16 16 15 15 15 15 15 14 15 15 14 14 14 14 15 15 15 15 14 13 13 11
2 2 2 4 2 3 5 10 12 5 2 1 5 8 12 12 15 15 22 20 13 4 21 20 21 23 23 23 21 21 24 25 21 19 6 7 13 17 18 24 22 21 22 22 20 22 22 21 21 20 19 21 19 19 19 18 18 18 18 18 17 17 17 16 15 15 15 15 15 15 14 14 14 14 15 15 15 16 15 15 15 15 12 13 13 12
1 1 1 3 3 3 7 12 9 5 10 3 6 6 11 13 12 19 17 22 5 13 16 18 22 26 25 22 21 24 28 27 25 20 14 15 19 25 23 20 19 20 22 21 21 21 20 19 19 17 18 19 19 18 17 17 18 18 18 17 17 16 15 15 15 15 14 14 15 15 14 14 14 14 15 15 15 16 15 15 14 14 13 13 13 13
5 5 3 3 1 6 6 7 8 9 4 5 9 8 15 14 17 20 12 15 8 16 18 20 26 25 22 21 24 22 22 22 24 21 16 19 23 23 24 19 19 22 21 21 23 22 22 20 18 18 16 17 18 17 16 17 18 17 17 17 16 15 15 15 15 15 15 15 14 14 14 14 14 14 14 15 15 14 15 15 15 14 13 12 12 12
6 3 5 7 4 3 4 7 8 1 7 7 8 11 19 16 20 13 14 12 13 19 21 22 24 22 22 23 23 21 20 19 26 31 33 27 24 23 19 22 25 24 20 21 21 20 20 19 20 20 18 19 19 17 18 18 17 17 17 17 16 16 16 15 15 15 14 14 14 13 13 13 14 14 14 15 16 15 14 14 14 14 14 13 11 11
5 5 5 3 3 7 9 7 8 6 3 8 15 20 15 15 13 13 14 17 18 21 20 19 21 21 21 23 20 23 22 20 23 29 27 30 26 24 19 21 20 19 21 22 20 19 14 15 16 16 18 16 17 17 17 17 17 17 17 17 16 16 15 15 15 15 14 13 13 13 14 13 13 15 15 14 14 14 14 13 14 14 14 14 12 10
5 2 2 3 8 8 4 7 8 10 3 12 19 19 14 16 15 16 12 14 18 19 19 18 21 22 21 24 24 22 25 27 28 24 26 26 24 24 25 24 22 21 19 18 18 17 18 16 14 14 16 14 14 16 16 16 17 17 18 17 17 17 15 15 15 14 14 14 13 14 14 14 14 14 13 13 13 14 14 14 14 14 14 10 8 9
2 4 5 5 4 5 4 8 11 10 3 16 18 14 6 12 10 13 16 15 14 17 17 19 19 20 18 25 29 31 29 29 26 26 24 24 24 25 26 23 24 22 25 23 20 21 19 17 19 19 17 15 15 14 14 17 18 18 18 18 18 16 14 15 15 15 15 14 13 13 14 14 15 14 12 13 14 15 16 15 14 10 9 11 12 12
2 2 4 3 1 5 4 5 4 10 17 14 10 12 15 10 13 14 13 16 12 12 15 16 20 20 23 25 28 30 32 31 28 24 26 26 24 22 23 22 22 24 23 17 19 20 20 18 18 16 16 14 14 13 14 13 15 16 18 19 16 15 15 15 15 15 14 13 12 13 13 13 14 14 13 14 14 14 15 16 10 8 9 9 10 9
2 3 2 7 3 1 4 8 14 16 14 9 12 15 15 15 14 15 15 17 17 13 12 17 24 25 23 27 30 31 28 26 26 25 27 24 22 23 23 24 23 22 22 24 22 21 19 20 20 20 20 16 15 14 14 14 16 17 18 17 16 16 16 15 15 15 14 13 11 12 12 13 13 13 13 13 13 14 14 11 7 9 9 8 8 5
3 2 2 1 5 10 14 16 11 8 11 17 16 14 16 17 14 12 15 15 12 15 13 16 23 27 28 24 25 26 24 27 29 26 23 24 23 22 21 21 20 18 21 20 20 20 22 19 19 20 23 18 17 17 16 16 14 18 16 16 16 16 15 14 15 15 15 13 12 12 13 14 13 14 14 14 12 12 10 7 7 8 8 7 5 3
3 1 2 3 4 12 11 12 17 13 12 16 16 14 14 14 15 16 15 14 16 19 19 15 16 23 24 24 26 27 28 26 27 26 24 23 22 21 23 20 21 21 21 21 22 23 21 19 18 21 22 20 19 17 18 18 16 14 13 16 17 16 14 14 15 16 14 13 12 12 12 13 11 12 12 12 10 10 8 4 5 6 7 6 4 1
3 2 5 3 11 7 16 19 18 17 14 11 11 14 17 18 20 18 15 16 20 19 20 19 16 17 22 26 27 27 28 26 21 25 26 22 20 22 22 20 23 27 26 21 21 22 20 20 21 22 22 20 19 18 16 17 16 12 16 18 17 14 13 13 15 15 14 14 12 10 11 11 14 14 11 11 10 10 6 4 4 5 5 5 5 1
8 5 7 12 10 9 12 14 21 27 20 17 24 18 18 20 21 21 22 22 24 23 22 26 25 21 21 25 27 26 26 26 28 28 27 21 24 24 23 27 29 28 27 28 24 20 21 20 21 19 19 19 18 17 18 17 16 17 18 17 16 13 12 14 16 16 14 12 10 11 11 10 10 11 11 11 11 9 2 4 5 5 5 2 2 3
7 10 11 12 13 12 13 19 20 19 22 20 17 20 22 21 18 20 22 23 23 24 25 30 35 32 26 22 21 21 24 26 29 28 26 23 22 25 27 28 26 26 26 24 22 21 19 18 17 20 22 22 18 17 16 18 16 16 16 15 13 11 13 15 14 14 12 10 10 10 11 10 10 11 10 10 10 9 5 1 3 5 5 5 5 6
4 9 9 10 10 15 16 16 13 15 17 17 18 21 21 18 18 20 22 22 21 21 24 28 32 32 32 28 21 21 26 28 29 26 24 22 23 22 21 23 24 25 25 25 24 22 20 22 23 22 24 23 19 20 17 16 16 15 13 12 12 13 14 14 12 12 10 10 9 11 11 10 10 10 10 10 10 7 4 6 3 6 10 6 5 6
Wind_Direction
120 65 47 318 287 301 288 231 239 267 210 271 346 313 280 283 284 264 274 264 328 343 288 304 299 286 285 282 293 311 334 344 15 19 8 6 12 17 20 21 13 27 7 316 320 8 11 13 11 14 22 16 38 38 14 19 4 349 291 205 238 206 167 168 167 176 169 177 181 204 213 225 221 218 215 219 217 215 217 212 207 205 205 203 200 196
63 60 357 274 253 265 285 299 258 305 114 225 301 307 302 254 297 299 290 359 333 51 286 347 321 306 282 290 299 323 8 350 346 347 360 350 342 350 18 19 5 320 308 353 12 7 11 11 13 20 24 25 21 359 10 10 347 337 334 293 300 179 199 202 198 188 183 192 193 184 207 215 221 210 206 222 216 220 223 218 214 212 208 205 205 200
42 54 289 287 276 294 55 35 42 242 268 77 272 271 326 309 245 292 285 312 348 24 262 317 339 299 294 290 297 303 290 264 282 239 268 289 316 332 345 354 350 9 2 7 7 9 8 9 16 25 22 18 19 10 12 2 360 355 343 318 306 280 236 238 212 175 209 215 224 206 224 189 246 243 241 253 245 226 226 223 216 216 213 210 210 207
39 329 318 321 18 344 351 26 17 32 70 26 350 26 332 283 15 320 286 344 335 59 278 313 308 290 313 296 273 257 245 290 284 296 274 240 269 292 306 306 318 359 12 11 359 352 348 4 23 24 22 14 21 16 8 3 360 354 351 343 321 290 262 248 225 222 246 250 224 249 289 303 216 251 246 239 244 230 222 226 218 221 218 213 213 209
141 281 8 49 34 55 8 346 28 20 343 318 174 322 312 336 323 197 297 328 304 342 224 303 315 312 357 349 327 303 328 324 317 340 325 312 265 268 296 344 334 333 338 352 0 2 9 16 11 15 9 19 27 16 11 2 358 349 344 341 331 308 283 258 246 240 227 206 235 337 3 13 335 303 308 297 259 228 224 229 214 223 215 216 216 211
341 286 286 15 25 31 55 16 31 17 347 325 236 231 262 276 297 288 301 325 9 341 2 22 352 313 274 296 268 283 344 333 304 349 296 295 312 349 4 345 338 340 314 324 337 359 8 12 2 11 12 19 14 15 359 358 358 1 354 354 354 342 323 302 288 259 193 219 217 227 246 269 257 263 236 236 236 227 220 222 225 230 215 216 218 215
172 340 67 47 69 23 56 80 236 91 335 45 322 179 279 310 307 311 325 31 359 353 301 48 101 289 320 322 302 313 325 302 309 321 284 300 304 331 347 336 334 337 344 353 4 8 12 360 7 7 13 7 12 355 345 357 8 9 7 3 3 358 347 339 316 258 199 230 228 224 231 240 247 256 256 238 244 238 234 231 227 223 215 214 217 218
360 334 21 42 32 29 17 14 303 114 67 330 252 80 333 331 312 289 147 115 233 261 303 43 105 274 312 303 276 301 292 295 316 307 308 302 306 325 331 321 326 342 4 0 351 355 0 2 11 8 2 10 357 344 351 360 2 6 3 3 2 1 2 348 326 277 226 229 237 240 245 248 256 252 266 266 255 240 236 222 226 222 217 215 215 218
104 317 22 352 23 23 15 296 293 133 210 258 290 349 312 287 257 175 135 178 220 9 311 335 341 16 261 272 303 1 339 339 310 295 295 298 310 322 328 326 329 344 4 12 357 348 355 5 4 4 1 354 2 4 1 355 349 351 356 0 1 5 2 355 353 320 283 260 260 258 267 269 257 262 268 274 270 259 230 234 227 223 221 219 218 217
315 160 256 125 64 354 274 285 207 156 5 282 288 337 73 92 70 124 101 105 329 56 302 308 333 45 298 289 328 333 9 325 304 304 298 296 306 327 328 341 358 11 10 9 10 3 2 9 11 6 8 11 6 1 2 1 359 358 356 356 356 355 352 350 351 352 324 290 283 284 270 269 278 276 277 272 272 264 241 241 235 226 223 220 220 219
261 319 148 90 219 282 305 292 201 194 231 305 18 318 339 45 41 26 65 84 57 22 266 237 325 81 296 281 259 351 336 304 323 320 328 335 345 8 346 356 24 31 24 22 23 24 22 19 19 13 13 5 4 3 3 1 358 355 354 351 350 342 342 343 342 344 337 328 308 285 283 279 282 286 285 290 282 269 257 248 245 232 230 221 223 217
2 6 80 260 347 320 75 326 18 281 281 21 17 348 341 346 357 40 347 38 51 297 261 248 171 160 286 293 296 225 311 7 359 337 348 359 11 17 21 23 30 28 21 21 22 18 16 14 11 10 7 1 357 358 359 355 353 350 345 344 342 336 338 335 332 335 328 327 315 301 291 287 283 284 289 286 285 281 264 252 253 243 240 233 226 220
57 148 282 344 286 62 317 10 321 25 350 20 10 18 39 312 17 337 5 355 334 279 291 140 317 349 239 224 258 331 12 17 13 18 19 28 27 28 26 25 26 23 20 20 16 13 13 12 6 3 358 356 355 351 347 346 344 341 338 337 334 328 328 324 326 324 318 317 310 303 297 289 284 283 280 280 281 281 272 264 258 248 241 235 230 221
289 303 350 325 6 332 66 34 330 359 352 8 28 38 49 6 19 314 283 215 294 277 231 314 15 231 261 294 8 24 26 36 29 28 32 33 35 29 24 22 21 20 19 13 8 8 7 4 0 358 354 351 347 344 342 341 340 338 333 332 329 321 319 317 320 321 320 315 310 305 298 291 288 286 282 279 278 280 272 265 262 254 246 239 231 224
16 346 319 14 355 30 58 95 326 229 349 295 191 117 165 124 269 304 263 312 288 277 307 337 43 240 352 28 46 56 51 48 39 29 22 24 23 18 12 14 14 10 7 3 359 359 358 355 358 355 349 346 343 340 339 338 336 335 333 330 327 322 322 323 319 320 320 317 314 311 301 294 289 281 283 277 272 275 276 269 262 260 253 246 243 229
299 235 258 236 239 24 1 265 116 73 56 270 183 106 51 303 132 210 214 214 282 327 323 329 213 209 252 81 74 85 54 50 43 36 25 25 17 10 10 5 3 356 354 353 351 350 351 351 354 353 349 344 342 338 335 335 334 332 329 325 320 316 314 315 315 316 313 309 309 309 310 307 302 292 286 286 279 272 266 270 263 265 257 250 248 242
2 325 271 323 64 181 146 203 352 123 16 287 47 337 262 179 148 305 328 281 38 57 260 175 306 301 298 3 21 16 27 23 21 19 19 16 9 7 6 355 354 347 347 346 344 344 342 345 350 348 344 341 339 336 331 328 326 323 322 321 317 316 314 311 312 311 307 304 307 307 305 305 306 304 300 296 292 285 278 266 264 261 261 257 251 245
141 268 314 43 327 344 202 134 332 16 153 68 18 269 235 125 127 126 247 323 46 219 274 28 283 303 23 290 12 16 13 8 11 6 360 2 358 3 359 351 349 345 342 339 331 329 331 338 342 342 338 337 335 327 322 321 320 316 315 314 314 314 315 315 314 312 310 308 308 307 308 306 301 298 298 296 291 289 286 277 266 265 265 255 249 241
116 346 293 277 253 271 341 105 9 2 22 4 262 209 33 323 340 321 75 315 320 289 278 287 282 276 209 275 4 12 6 354 1 351 354 354 354 352 350 349 347 344 339 337 332 327 329 336 339 338 334 331 328 321 316 315 313 314 314 312 310 309 309 308 308 304 300 297 297 301 301 302 301 295 291 288 287 287 286 281 276 267 259 261 253 242
27 248 296 289 323 298 335 57 338 294 330 14 6 347 325 158 204 330 239 213 128 266 360 286 354 271 34 331 337 350 8 344 352 348 349 349 344 345 346 344 343 340 335 331 327 321 318 328 331 332 331 328 326 324 319 316 316 314 314 313 313 311 309 307 305 303 302 303 303 300 297 292 283 280 281 284 289 293 290 284 281 275 269 257 251 239
279 108 259 278 305 1 356 354 312 307 330 330 25 323 351 287 217 168 267 174 253 252 245 289 303 255 236 284 35 6 359 354 351 338 340 339 341 337 341 336 334 329 327 327 324 320 320 327 330 331 331 327 325 321 317 316 316 314 314 314 314 313 312 309 307 305 302 303 302 300 297 295 292 283 280 283 284 284 285 284 279 273 264 268 253 235
45 355 231 318 350 18 270 228 215 168 162 206 179 272 215 299 323 341 290 34 26 251 274 288 271 274 180 158 172 28 354 353 352 338 339 331 333 331 327 327 323 321 322 322 319 316 319 324 328 329 325 326 326 323 320 318 314 315 315 313 312 309 308 306 304 304 302 301 299 298 295 295 292 285 283 283 285 284 282 281 278 274 275 261 257 234
133 170 78 299 238 278 270 307 255 241 184 200 148 277 149 142 112 228 277 293 337 238 134 258 291 265 193 222 228 11 358 348 345 338 335 327 326 323 322 320 315 318 323 322 319 320 325 329 330 325 322 322 322 318 315 313 314 315 314 313 312 310 307 306 303 301 301 300 300 298 296 293 290 288 287 287 287 286 284 280 278 275 267 265 260 243
74 70 352 268 279 278 293 352 96 67 144 345 30 66 31 331 325 249 249 275 280 297 315 314 264 258 246 248 196 1 345 335 337 342 334 330 328 330 328 327 326 332 332 329 329 337 337 330 324 317 317 320 322 319 316 314 315 316 314 312 310 308 306 304 302 300 299 299 297 297 297 295 290 286 282 281 282 284 284 281 277 274 266 261 259 249
30 298 102 318 347 335 332 342 344 216 62 273 324 16 31 5 359 296 263 55 300 275 316 315 285 301 194 219 337 354 353 348 342 339 338 335 335 331 330 326 329 331 327 327 336 339 329 320 316 315 313 316 316 312 310 312 312 313 311 309 307 305 303 302 302 302 301 300 299 299 299 299 299 297 293 288 285 283 284 283 279 274 266 263 256 248
98 239 77 41 352 337 332 336 326 328 329 315 70 50 17 20 360 4 6 340 312 301 339 306 280 288 318 342 355 358 345 335 333 331 331 330 326 322 317 322 330 326 319 323 328 324 318 315 310 309 311 313 312 309 307 306 306 305 304 302 302 301 300 298 297 296 298 300 302 302 302 302 301 299 296 294 291 285 281 279 277 275 273 258 259 253
162 313 163 151 174 255 256 257 278 325 323 309 329 35 359 21 18 50 349 11 336 305 295 273 286 308 311 335 352 345 331 333 331 329 325 322 320 318 320 328 325 318 315 317 318 311 308 311 312 310 314 315 313 311 309 309 308 306 304 301 300 301 302 303 304 304 305 305 302 299 297 296 294 293 291 290 288 288 286 279 272 270 270 268 254 251
67 320 253 196 219 238 254 277 284 310 288 314 24 348 356 14 4 39 39 325 300 296 272 313 311 300 306 328 345 333 333 328 320 316 318 319 319 317 320 314 309 306 302 309 318 322 321 316 311 312 314 313 311 309 306 306 306 305 304 302 303 304 304 304 303 303 302 302 300 297 296 296 296 294 291 288 286 286 284 282 278 271 268 265 255 248
132 246 276 122 255 252 269 275 278 295 333 82 34 14 359 346 6 14 339 316 329 304 302 306 300 293 306 331 333 331 325 315 311 313 312 311 305 308 312 312 311 304 305 318 323 321 319 313 311 313 314 312 310 310 310 311 312 310 306 304 303 304 303 303 302 301 300 299 297 296 296 296 295 293 292 292 292 292 289 284 278 275 271 266 259 248
81 255 242 199 278 281 281 262 272 259 148 58 35 10 345 355 352 329 328 324 334 311 298 296 289 290 317 335 331 321 314 311 310 313 313 315 316 315 314 312 308 306 314 320 321 318 313 308 309 312 311 309 309 310 312 313 313 312 309 307 306 304 303 304 301 300 299 297 295 295 295 295 294 292 292 294 295 294 291 285 280 278 275 270 259 252
64 282 60 349 339 305 298 268 117 265 150 83 28 19 8 354 344 344 340 337 331 308 303 294 292 296 326 327 313 314 311 310 315 322 321 314 315 317 315 311 308 310 319 321 317 316 311 308 311 312 309 306 306 309 310 309 309 308 306 304 303 303 302 301 299 297 296 294 294 293 293 293 291 290 290 292 293 293 291 288 284 281 279 274 262 253
48 281 47 67 351 310 321 332 329 1 109 104 39 22 5 358 348 335 327 320 316 317 312 308 300 307 314 315 307 309 321 328 321 316 315 315 315 314 311 307 307 316 320 316 313 310 309 308 310 310 306 303 304 307 307 306 306 306 304 303 302 301 302 301 300 299 297 295 294 294 294 292 290 289 289 290 289 289 288 287 286 284 282 278 273 260
113 45 346 356 341 288 312 331 326 327 135 4 20 23 350 349 333 320 315 320 319 311 314 321 298 314 317 323 329 330 326 317 315 317 316 317 316 311 308 310 316 321 316 313 312 309 306 308 309 308 304 305 308 308 305 303 304 303 302 301 301 301 302 302 301 300 297 296 295 294 293 290 290 291 292 291 291 291 290 289 288 286 285 282 277 269
67 80 315 151 283 283 309 331 324 341 342 320 174 82 15 351 334 326 320 327 324 335 312 319 316 324 330 333 325 320 323 319 313 307 308 305 304 303 303 313 318 314 311 309 307 307 307 308 310 307 306 309 309 306 302 300 300 301 301 301 303 305 306 305 302 300 298 298 296 296 293 292 291 291 291 292 293 294 292 290 287 286 284 282 278 267
41 59 248 125 263 290 314 351 341 347 304 178 178 358 11 341 330 332 323 334 332 319 338 324 327 334 325 316 317 314 310 309 306 303 307 302 293 298 314 318 314 312 309 306 307 308 310 309 305 304 309 315 310 306 304 304 304 304 304 305 305 306 304 302 300 300 301 300 299 299 297 296 294 292 294 295 295 294 291 288 286 283 281 278 274 269
250 30 281 303 194 302 358 9 342 314 245 301 239 53 347 353 344 323 310 320 322 317 330 336 329 315 316 315 314 311 306 307 302 299 298 287 297 318 318 309 307 306 304 305 304 305 306 304 303 308 312 307 302 302 304 303 303 302 302 302 300 299 296 295 295 297 299 298 298 297 296 295 296 297 298 296 294 292 290 289 286 284 282 278 272 264
119 112 72 324 93 5 314 314 289 289 233 143 7 2 348 334 338 346 324 325 343 351 349 327 316 317 315 314 310 308 308 306 298 301 325 306 315 313 304 304 301 299 300 299 298 298 298 307 313 310 305 302 302 303 304 303 303 302 301 300 298 297 296 296 297 299 298 296 296 296 295 295 296 297 296 295 295 294 293 291 288 285 281 278 276 268
146 33 257 43 307 108 332 315 317 321 313 358 354 331 329 330 329 334 323 306 7 349 338 325 319 317 316 313 314 317 315 312 313 309 325 325 319 313 308 303 302 302 302 300 299 302 312 311 303 296 296 295 294 297 299 302 303 301 299 298 298 297 297 297 298 300 299 297 298 297 298 297 295 293 291 292 292 291 291 289 285 284 282 280 280 278
53 77 115 113 294 16 340 311 309 307 301 119 342 341 329 338 345 326 308 296 345 342 332 331 318 316 315 316 317 319 320 316 309 308 318 320 313 311 308 305 304 302 304 307 313 318 313 310 304 300 295 294 296 298 299 303 304 302 300 300 299 299 299 298 300 303 302 300 299 298 297 295 294 292 291 290 290 290 291 289 287 286 282 276 272 267
47 6 38 40 8 342 294 300 310 228 259 268 297 342 348 342 335 322 315 312 345 336 331 323 316 315 315 313 313 314 319 314 314 313 316 312 308 306 306 307 308 311 309 312 316 310 306 304 306 306 305 306 303 303 307 309 307 305 302 302 302 301 300 301 304 303 299 297 296 296 295 294 294 293 292 292 291 290 288 286 286 284 281 277 270 265
357 339 46 45 313 310 323 290 289 287 4 329 339 353 346 342 331 335 319 314 334 326 319 317 309 311 310 309 315 315 312 304 297 298 301 306 308 308 306 304 305 310 313 314 310 306 298 299 300 300 301 302 304 306 308 309 309 306 305 304 303 300 300 303 303 301 297 295 295 296 295 293 291 291 290 289 290 291 289 286 285 283 280 277 271 265
12 349 259 340 350 341 304 302 293 291 194 351 355 340 350 350 346 326 307 316 315 312 313 309 307 309 309 310 315 310 306 303 300 299 301 305 307 305 308 313 315 313 311 307 305 310 312 308 302 301 303 300 300 303 305 307 307 306 306 306 304 302 304 301 301 301 299 297 296 297 294 293 293 292 291 292 292 293 292 289 285 282 286 292 296 289
333 330 336 326 291 303 335 310 326 316 325 4 341 337 22 337 302 298 305 301 306 306 306 306 305 305 310 312 311 309 306 306 304 303 304 306 307 310 314 317 318 320 319 319 321 322 319 315 316 314 311 309 308 306 307 309 308 307 307 306 306 307 305 303 303 301 299 296 295 295 295 296 296 295 295 294 294 294 293 293 292 303 317 312 307 295
205 58 329 298 86 307 333 334 281 292 312 338 360 329 326 293 299 301 305 305 302 303 308 307 309 311 310 308 310 309 308 307 307 310 309 308 309 310 310 312 315 315 314 316 318 316 315 312 309 307 305 304 306 307 307 306 304 306 307 305 307 307 305 304 303 302 298 294 292 294 297 298 296 295 295 296 296 296 295 293 307 325 318 319 309 299
349 100 221 271 264 131 257 264 276 282 294 320 331 309 299 298 301 305 302 300 305 304 303 306 311 311 309 308 307 308 308 309 307 308 309 309 312 309 310 316 318 315 319 321 318 317 314 313 313 311 307 305 307 310 307 306 304 303 303 307 308 306 308 305 305 303 299 295 295 296 298 296 295 295 295 295 297 299 298 301 326 325 322 318 310 296
237 80 295 314 280 285 272 252 269 300 317 320 317 305 301 303 300 295 300 304 300 299 304 307 311 312 310 305 308 310 310 311 310 310 313 313 308 304 313 315 314 318 318 316 317 318 315 313 315 313 312 311 315 312 307 304 299 299 301 307 307 303 305 306 305 304 300 298 299 300 298 296 296 295 295 298 299 297 296 316 333 330 316 319 308 312
246 246 320 208 304 327 308 334 317 316 322 307 295 288 288 294 307 313 312 309 306 311 308 300 302 303 304 308 313 311 308 310 311 315 316 312 306 313 318 312 316 317 316 319 321 316 316 321 316 317 318 314 314 311 309 303 296 294 302 307 306 300 301 303 305 303 301 299 301 300 299 297 297 298 299 300 301 300 304 337 342 323 312 314 311 318
311 332 319 302 316 301 298 306 307 309 303 283 294 314 318 320 323 322 316 313 312 310 310 307 303 301 313 315 315 311 311 315 319 321 318 313 313 317 317 320 324 323 323 322 317 316 320 321 321 321 320 316 316 314 310 301 300 309 311 308 305 297 299 305 306 304 300 300 301 300 300 298 297 299 300 305 306 306 314 343 340 319 308 321 315 256
277 322 336 324 304 287 280 307 323 319 320 334 330 324 321 320 323 319 318 317 319 317 316 316 316 317 316 314 315 315 316 321 324 320 314 314 316 319 329 331 326 323 325 324 323 327 326 323 320 317 313 311 314 314 312 315 319 315 310 306 302 297 305 307 305 302 298 299 301 300 299 298 298 298 302 305 306 310 55 338 329 311 302 283 243 243
343 341 323 330 325 331 334 326 332 329 324 326 321 318 316 317 317 315 317 318 319 318 317 318 320 319 319 318 317 319 323 323 320 317 314 319 328 335 329 326 326 326 324 322 321 318 316 317 315 316 319 321 320 315 315 315 310 307 305 305 304 306 309 306 303 300 298 300 301 300 301 303 303 303 305 307 306 312 327 344 324 329 313 302 316 306
355 324 334 324 318 308 310 309 310 297 291 294 303 310 311 312 315 314 315 312 309 309 313 316 319 320 321 324 328 329 325 320 318 316 326 338 329 325 324 324 323 323 323 322 320 320 324 329 328 325 323 321 317 314 311 307 303 303 301 303 308 309 305 303 303 299 298 301 301 301 302 304 306 307 309 306 306 309 318 326 349 357 344 333 321 330